Precipitable_Water
0.38 0.41 0.43 0.39 0.33 0.31 0.31 0.32 0.32 0.33 0.33 0.34 0.30 0.27 0.26 0.35 0.42 0.46 0.50 0.50 0.54 0.58 0.59 0.57 0.59 0.60 0.60 0.64 0.70 0.77 0.74 0.70 0.72 0.71 0.69 0.70 0.73 0.73 0.75 0.79 0.91 1.13 1.36
0.32 0.37 0.36 0.31 0.31 0.33 0.35 0.35 0.35 0.37 0.38 0.38 0.36 0.33 0.29 0.32 0.39 0.45 0.49 0.51 0.52 0.55 0.58 0.57 0.57 0.61 0.60 0.64 0.71 0.78 0.78 0.77 0.76 0.66 0.69 0.59 0.69 0.83 0.81 0.89 0.87 1.02 1.23
0.29 0.31 0.30 0.31 0.34 0.33 0.35 0.36 0.37 0.39 0.41 0.40 0.38 0.35 0.33 0.30 0.29 0.37 0.43 0.49 0.51 0.52 0.57 0.59 0.59 0.61 0.64 0.63 0.70 0.78 0.84 0.82 0.85 0.77 0.69 0.64 0.62 0.71 0.87 0.86 0.84 1.07 1.12
0.29 0.28 0.28 0.29 0.30 0.32 0.36 0.37 0.38 0.41 0.44 0.43 0.37 0.33 0.30 0.27 0.29 0.32 0.40 0.46 0.51 0.51 0.54 0.56 0.59 0.62 0.64 0.65 0.69 0.78 0.83 0.89 0.85 0.87 0.83 0.82 0.83 0.73 0.68 0.91 0.88 0.99 1.08
0.28 0.28 0.30 0.31 0.34 0.35 0.36 0.38 0.40 0.42 0.44 0.42 0.39 0.36 0.33 0.35 0.37 0.38 0.38 0.42 0.49 0.52 0.53 0.56 0.58 0.59 0.61 0.64 0.67 0.71 0.77 0.84 0.90 0.94 0.88 0.86 0.91 0.91 0.80 0.66 0.76 0.97 1.09
0.30 0.31 0.29 0.27 0.27 0.31 0.33 0.36 0.39 0.39 0.41 0.41 0.40 0.36 0.34 0.33 0.33 0.37 0.37 0.37 0.42 0.49 0.52 0.55 0.55 0.55 0.57 0.59 0.65 0.69 0.70 0.76 0.83 0.92 0.98 0.94 0.88 0.86 0.85 0.77 0.76 0.80 0.93
0.25 0.23 0.23 0.23 0.25 0.27 0.29 0.32 0.34 0.33 0.35 0.36 0.37 0.39 0.39 0.39 0.38 0.38 0.40 0.40 0.39 0.42 0.48 0.52 0.53 0.52 0.56 0.58 0.62 0.67 0.68 0.68 0.72 0.79 0.85 0.94 0.94 0.92 0.93 0.83 0.74 0.76 0.87
0.24 0.25 0.28 0.31 0.33 0.35 0.37 0.38 0.38 0.39 0.41 0.43 0.45 0.47 0.48 0.45 0.43 0.45 0.47 0.49 0.50 0.49 0.48 0.49 0.50 0.51 0.52 0.56 0.59 0.60 0.64 0.69 0.67 0.67 0.73 0.77 0.83 0.91 0.91 0.85 0.80 0.73 0.75
0.25 0.26 0.31 0.34 0.35 0.36 0.37 0.37 0.37 0.37 0.39 0.41 0.43 0.44 0.46 0.46 0.45 0.48 0.52 0.52 0.54 0.56 0.57 0.52 0.47 0.49 0.50 0.52 0.54 0.55 0.57 0.60 0.66 0.66 0.70 0.70 0.71 0.73 0.75 0.79 0.80 0.72 0.59
0.30 0.30 0.34 0.36 0.37 0.38 0.39 0.39 0.40 0.40 0.42 0.45 0.47 0.45 0.44 0.45 0.47 0.53 0.53 0.55 0.55 0.57 0.59 0.59 0.53 0.48 0.50 0.51 0.50 0.50 0.53 0.53 0.57 0.60 0.64 0.66 0.70 0.69 0.68 0.69 0.71 0.72 0.67
0.31 0.31 0.34 0.38 0.38 0.37 0.38 0.38 0.40 0.42 0.46 0.48 0.48 0.48 0.45 0.45 0.48 0.52 0.57 0.55 0.58 0.58 0.59 0.64 0.64 0.57 0.48 0.46 0.46 0.46 0.45 0.43 0.41 0.42 0.50 0.58 0.62 0.63 0.68 0.68 0.68 0.69 0.72
0.33 0.35 0.37 0.38 0.38 0.37 0.39 0.42 0.45 0.47 0.51 0.50 0.49 0.49 0.50 0.51 0.52 0.54 0.56 0.58 0.58 0.60 0.60 0.61 0.61 0.59 0.51 0.44 0.42 0.39 0.37 0.33 0.31 0.30 0.30 0.31 0.34 0.39 0.50 0.58 0.62 0.64 0.64
0.33 0.37 0.40 0.42 0.44 0.48 0.51 0.53 0.52 0.52 0.57 0.54 0.50 0.49 0.49 0.49 0.49 0.51 0.54 0.56 0.58 0.59 0.60 0.59 0.56 0.54 0.53 0.45 0.37 0.35 0.33 0.33 0.32 0.31 0.30 0.28 0.27 0.26 0.26 0.27 0.32 0.38 0.42
0.41 0.46 0.49 0.52 0.53 0.53 0.54 0.54 0.53 0.57 0.58 0.54 0.52 0.51 0.51 0.51 0.52 0.52 0.54 0.56 0.57 0.56 0.56 0.56 0.54 0.52 0.53 0.50 0.43 0.35 0.33 0.32 0.32 0.32 0.31 0.30 0.29 0.27 0.27 0.27 0.26 0.27 0.27
0.49 0.51 0.52 0.50 0.50 0.50 0.51 0.51 0.50 0.50 0.52 0.52 0.52 0.53 0.54 0.54 0.54 0.54 0.54 0.55 0.55 0.56 0.57 0.56 0.55 0.52 0.51 0.51 0.50 0.43 0.36 0.33 0.31 0.31 0.32 0.32 0.32 0.32 0.32 0.30 0.29 0.28 0.26
0.52 0.53 0.52 0.51 0.51 0.52 0.51 0.51 0.51 0.52 0.54 0.52 0.51 0.52 0.51 0.50 0.50 0.51 0.53 0.54 0.54 0.54 0.54 0.55 0.56 0.54 0.52 0.52 0.54 0.52 0.45 0.40 0.35 0.32 0.33 0.34 0.34 0.34 0.34 0.33 0.32 0.31 0.28
0.54 0.54 0.54 0.54 0.53 0.52 0.51 0.49 0.50 0.52 0.52 0.52 0.52 0.52 0.52 0.51 0.51 0.51 0.49 0.48 0.50 0.51 0.51 0.52 0.53 0.53 0.54 0.54 0.54 0.55 0.53 0.47 0.42 0.39 0.37 0.36 0.35 0.35 0.32 0.32 0.31 0.32 0.32
0.56 0.56 0.55 0.53 0.50 0.49 0.48 0.50 0.51 0.52 0.52 0.51 0.51 0.52 0.51 0.50 0.50 0.50 0.49 0.49 0.48 0.46 0.48 0.49 0.52 0.52 0.53 0.53 0.53 0.54 0.53 0.52 0.49 0.46 0.44 0.40 0.36 0.35 0.34 0.32 0.31 0.31 0.32
0.56 0.55 0.53 0.49 0.44 0.41 0.43 0.45 0.45 0.48 0.49 0.49 0.49 0.50 0.50 0.49 0.47 0.43 0.44 0.46 0.47 0.47 0.46 0.46 0.47 0.49 0.51 0.52 0.52 0.52 0.52 0.51 0.51 0.49 0.47 0.44 0.41 0.39 0.39 0.35 0.32 0.31 0.33
0.54 0.50 0.49 0.45 0.35 0.31 0.32 0.30 0.29 0.30 0.31 0.34 0.36 0.38 0.41 0.42 0.42 0.42 0.41 0.41 0.40 0.41 0.45 0.46 0.46 0.45 0.47 0.50 0.51 0.51 0.51 0.49 0.49 0.51 0.50 0.49 0.45 0.43 0.42 0.39 0.36 0.33 0.34
0.49 0.49 0.46 0.37 0.28 0.28 0.27 0.25 0.25 0.25 0.27 0.30 0.29 0.29 0.29 0.30 0.30 0.32 0.36 0.38 0.37 0.35 0.35 0.36 0.41 0.44 0.44 0.44 0.47 0.48 0.48 0.48 0.47 0.48 0.49 0.50 0.48 0.47 0.45 0.44 0.41 0.38 0.38
0.45 0.45 0.39 0.29 0.29 0.33 0.31 0.27 0.26 0.28 0.31 0.30 0.30 0.29 0.29 0.30 0.31 0.29 0.28 0.29 0.31 0.33 0.33 0.32 0.31 0.35 0.40 0.44 0.46 0.47 0.47 0.48 0.47 0.49 0.53 0.51 0.49 0.47 0.47 0.45 0.44 0.43 0.42
0.42 0.40 0.35 0.32 0.34 0.36 0.33 0.28 0.28 0.29 0.29 0.28 0.27 0.27 0.28 0.28 0.28 0.27 0.26 0.26 0.26 0.25 0.25 0.30 0.31 0.29 0.34 0.37 0.41 0.43 0.46 0.48 0.49 0.52 0.55 0.54 0.51 0.49 0.48 0.48 0.45 0.45 0.44
0.37 0.35 0.35 0.34 0.33 0.36 0.32 0.30 0.27 0.25 0.24 0.23 0.22 0.22 0.23 0.22 0.22 0.23 0.24 0.23 0.22 0.21 0.22 0.22 0.26 0.31 0.32 0.33 0.37 0.37 0.39 0.42 0.46 0.49 0.52 0.54 0.54 0.51 0.49 0.48 0.48 0.47 0.45
0.34 0.35 0.35 0.32 0.31 0.28 0.25 0.25 0.24 0.23 0.21 0.20 0.20 0.20 0.20 0.21 0.21 0.22 0.22 0.22 0.22 0.23 0.22 0.22 0.24 0.26 0.28 0.33 0.37 0.37 0.37 0.39 0.40 0.42 0.47 0.49 0.50 0.49 0.49 0.48 0.48 0.48 0.46
0.35 0.31 0.30 0.30 0.28 0.27 0.26 0.26 0.26 0.25 0.22 0.20 0.19 0.19 0.19 0.20 0.20 0.19 0.18 0.21 0.22 0.23 0.23 0.24 0.25 0.26 0.30 0.36 0.38 0.39 0.41 0.41 0.40 0.39 0.39 0.43 0.47 0.47 0.48 0.47 0.46 0.46 0.44
Wind_Speed
13 13 13 13 12 12 12 12 14 15 14 14 14 15 16 15 14 14 16 16 16 18 19 21 24 27 29 31 34 36 37 37 35 29 21 19 23 26 31 35 36 34 32
12 12 12 11 11 11 12 14 14 15 14 14 15 16 16 15 15 15 16 16 17 19 20 22 24 27 29 30 33 35 35 34 33 26 18 9 10 15 22 28 30 28 29
11 11 10 10 10 11 13 15 16 15 15 15 16 17 16 15 15 16 17 18 19 20 21 22 24 26 27 28 30 32 33 32 31 24 15 8 2 8 14 21 26 23 23
8 8 8 8 10 12 14 15 15 15 15 16 16 16 15 15 16 18 18 19 20 21 22 23 24 25 26 27 28 29 29 30 28 24 17 7 2 4 10 15 21 20 18
6 6 7 9 12 14 15 16 15 15 15 16 16 15 16 17 18 19 20 21 21 22 23 24 24 24 25 25 26 26 26 26 25 23 17 11 5 3 8 13 17 16 15
4 6 8 11 12 14 16 16 16 16 17 17 16 17 18 19 20 21 22 22 23 23 24 24 24 25 25 24 24 23 22 22 21 20 17 11 6 3 7 11 13 16 16
5 6 8 10 12 14 16 16 16 18 18 17 18 19 20 21 22 23 24 24 25 25 25 25 25 25 24 24 22 21 20 18 17 15 14 11 6 1 5 8 11 14 16
7 9 11 13 14 16 18 18 18 18 18 19 20 21 22 23 24 25 25 26 26 27 27 26 26 25 24 23 21 19 18 17 15 14 11 9 6 3 5 9 11 13 16
11 12 13 15 17 19 20 20 20 21 22 22 23 24 25 26 26 27 27 28 28 28 28 27 27 26 25 23 21 20 18 17 16 14 12 10 9 8 8 10 12 14 16
13 14 15 17 19 20 21 21 22 22 23 24 25 26 27 28 28 28 29 30 29 29 29 29 28 27 25 23 22 21 20 19 18 17 15 14 13 12 13 13 14 16 17
15 16 17 18 20 22 21 22 24 25 25 26 27 27 28 29 30 31 31 31 30 29 29 29 27 26 25 24 23 23 22 21 21 20 19 18 17 17 17 17 17 18 19
17 18 19 21 22 23 24 25 25 26 27 28 28 29 29 30 31 32 32 32 31 31 31 29 28 27 27 26 26 25 25 24 23 22 22 22 21 21 20 21 21 21 22
19 19 20 22 24 25 26 27 28 28 29 30 30 30 30 31 32 32 32 32 32 32 32 31 30 30 29 29 28 28 27 27 26 25 25 25 24 24 24 24 24 24 24
20 21 23 25 27 28 29 30 30 31 32 32 32 32 32 33 33 32 32 33 33 33 33 33 33 33 32 32 32 31 30 30 29 29 28 28 27 27 27 27 27 27 27
21 23 25 27 29 30 31 32 32 33 33 33 33 34 34 34 34 34 34 34 35 35 35 35 35 35 35 34 34 34 34 34 33 32 31 31 30 30 30 30 30 29 29
24 25 28 31 32 33 33 33 34 34 34 34 34 34 34 34 34 35 35 36 36 36 36 36 37 37 37 37 38 37 37 36 36 35 35 34 34 33 33 33 32 32 32
26 29 32 34 35 35 35 35 35 35 34 34 34 34 34 34 35 35 36 36 37 37 37 37 38 39 39 39 39 39 39 39 38 38 37 37 36 36 36 35 35 35 34
31 33 35 36 36 36 35 35 35 35 35 34 35 35 35 35 36 36 36 37 37 37 38 38 38 39 39 40 41 41 41 41 40 40 40 39 39 38 38 37 37 36 36
34 36 37 37 36 36 36 36 36 36 36 36 36 37 37 37 37 37 37 38 38 38 38 38 39 39 40 41 41 42 42 41 41 41 41 40 40 40 40 39 38 38 37
37 38 38 37 38 38 37 37 37 37 37 37 38 39 39 39 39 39 39 39 38 38 38 39 39 39 39 40 41 41 41 41 42 42 43 43 42 41 40 40 39 38 37
39 39 39 39 38 38 38 38 38 38 38 39 40 40 40 41 41 41 41 41 41 40 40 40 39 39 39 39 40 41 41 41 41 42 42 42 42 42 41 40 39 37 37
41 41 41 40 40 40 40 40 40 41 42 41 42 42 42 42 43 43 43 43 43 42 42 41 40 38 38 38 39 39 40 40 40 40 40 40 41 41 40 39 38 38 36
43 43 43 42 42 42 42 43 44 44 44 44 44 44 44 44 43 44 44 43 43 43 43 41 40 39 38 37 37 37 37 38 38 37 38 38 38 39 38 38 37 36 35
44 43 43 43 44 43 44 44 45 44 44 44 44 44 44 44 43 43 44 44 43 43 43 42 42 41 39 38 37 36 35 35 35 36 35 35 35 35 35 35 35 34 34
43 42 43 43 43 42 42 42 43 44 45 45 45 45 45 45 46 45 45 45 45 45 45 44 44 43 42 41 40 38 36 35 34 34 33 33 32 32 32 33 33 33 32
41 41 41 41 42 43 43 43 43 44 45 45 46 46 47 47 48 48 49 47 48 48 47 48 47 46 46 45 43 42 40 38 36 33 32 32 31 31 31 32 32 33 33
Wind_Direction
275 272 273 274 278 282 289 295 299 302 302 304 306 309 311 314 314 316 317 317 318 320 322 327 330 333 335 336 338 340 340 339 339 331 311 280 255 242 233 228 227 231 234
272 270 271 271 275 281 290 298 300 302 301 300 303 307 309 308 309 312 315 316 317 318 320 323 328 331 334 337 340 343 346 347 350 350 341 315 255 233 224 218 218 226 231
271 273 269 269 275 286 296 301 302 300 298 300 303 305 306 305 307 310 312 314 315 316 318 321 325 330 333 336 341 345 349 351 356 358 357 358 302 223 213 211 212 218 225
273 267 266 273 285 295 302 304 304 300 298 301 303 303 302 305 306 308 308 312 313 314 315 318 322 326 331 335 339 345 350 354 358 4 11 6 341 207 200 199 203 213 223
263 268 276 286 297 305 305 306 306 303 302 303 302 301 302 303 305 306 307 309 310 312 315 315 319 323 326 330 335 341 349 355 2 10 15 24 25 180 190 197 202 213 222
272 280 290 300 305 312 313 308 305 303 303 302 300 299 300 302 303 304 305 306 307 309 311 313 315 317 321 324 328 334 342 351 359 9 16 22 35 109 166 187 206 220 234
278 289 303 310 314 319 321 317 310 307 305 303 301 299 299 299 300 301 302 303 304 306 307 309 312 314 316 319 322 327 333 340 349 357 7 18 26 68 189 204 222 231 239
276 289 300 305 310 315 318 316 314 310 307 304 303 301 300 299 299 300 301 301 302 302 303 305 306 309 311 313 316 319 322 328 333 340 342 348 349 314 257 247 242 245 248
280 288 295 303 307 310 313 314 311 310 306 303 301 300 298 297 298 299 300 300 301 301 301 300 301 303 305 306 308 309 312 313 315 317 318 316 307 294 277 263 259 256 256
285 287 294 303 308 310 311 311 311 309 307 305 303 300 298 296 296 298 299 299 299 299 299 298 297 298 298 299 300 302 303 303 302 302 300 298 293 286 278 270 264 262 261
290 292 295 302 308 309 310 309 309 309 310 309 306 303 301 299 297 297 298 297 297 298 298 297 296 294 294 294 295 296 297 297 296 294 292 289 285 281 277 273 269 267 266
291 293 295 301 307 307 307 308 308 307 309 310 307 305 304 302 300 298 297 296 294 294 294 295 294 292 291 291 289 290 292 291 291 290 287 285 283 280 277 273 270 268 268
293 293 296 301 304 304 304 305 305 305 307 309 308 306 305 304 303 301 299 298 296 294 292 291 291 290 288 288 287 287 287 287 286 286 284 282 279 277 275 273 271 269 268
290 293 296 300 303 304 304 304 304 303 305 306 306 305 305 304 303 301 300 298 296 295 293 290 288 287 286 285 285 284 284 284 283 283 282 280 278 276 273 272 271 269 268
291 294 296 300 303 304 304 304 303 303 304 304 304 305 305 304 303 302 300 299 297 295 292 290 288 286 284 283 283 282 281 281 281 280 279 278 277 275 274 272 269 268 267
290 294 298 301 302 303 303 303 302 303 304 304 304 305 305 305 304 303 302 301 299 297 294 291 288 286 283 282 282 280 280 279 279 278 277 277 275 275 273 272 269 267 266
292 295 299 301 301 301 302 302 302 302 303 303 304 304 305 305 305 305 304 303 301 300 297 294 290 287 285 282 281 279 279 278 278 277 276 276 275 273 272 271 269 267 265
294 297 299 300 300 301 301 301 301 302 302 302 302 303 304 305 305 305 304 304 303 301 299 297 293 290 287 284 281 280 278 277 276 276 276 275 274 272 271 270 268 267 265
294 296 298 299 299 300 301 300 300 300 301 301 302 302 302 303 303 304 305 305 304 303 302 299 297 292 289 287 283 281 279 277 276 275 275 274 273 271 269 268 267 266 265
295 296 297 298 298 299 299 299 299 299 300 300 301 301 301 301 301 302 303 304 304 304 303 302 299 296 293 289 286 283 280 277 276 275 274 273 272 270 267 266 265 265 263
296 295 297 296 296 297 298 297 298 298 299 300 300 300 300 300 300 300 300 301 302 303 303 302 302 299 296 292 288 285 282 279 277 276 275 274 270 268 266 264 264 263 263
294 293 294 294 293 294 296 295 296 296 297 298 298 298 299 299 299 299 300 300 300 300 301 301 300 300 300 296 291 287 284 281 278 277 277 274 270 267 264 264 262 261 261
292 292 291 291 291 292 293 293 294 295 295 296 297 297 298 298 298 299 299 299 299 298 298 298 298 299 299 299 296 292 288 284 279 278 277 275 271 267 263 261 260 260 260
291 291 291 291 291 291 291 292 294 295 295 295 296 297 297 298 299 299 298 298 299 298 298 296 295 294 294 295 295 293 290 287 281 280 278 275 272 267 263 260 259 259 258
292 291 291 292 292 292 293 294 294 295 295 295 296 296 296 296 297 297 297 296 296 296 295 295 293 292 291 291 290 289 288 286 283 282 279 275 273 267 263 260 258 258 257
292 292 292 292 293 293 293 294 294 294 295 295 295 295 295 295 296 296 295 295 295 294 294 293 291 290 288 287 287 285 283 281 280 280 280 276 270 267 263 261 258 256 255